Stündliche Wetter Cazones

Heute, 20 Januar, Mittwoch

Zeit Temperatur Niederschläge Wind Luftdruck Luftfeuchtigkeit
00:00 +23°C° 0 mm 2 m/S 765 mmHg 95%
01:00 +23°C° 0.7 mm 2 m/S 764 mmHg 96%
02:00 +23°C° 0.7 mm 2 m/S 764 mmHg 96%
03:00 +23°C° 0.7 mm 2 m/S 764 mmHg 96%
04:00 +23°C° 1.3 mm 2 m/S 764 mmHg 96%
05:00 +22°C° 1.3 mm 3 m/S 764 mmHg 96%
06:00 +22°C° 1.3 mm 3 m/S 764 mmHg 96%
07:00 +23°C° 2.3 mm 2 m/S 765 mmHg 96%
08:00 +23°C° 2.3 mm 2 m/S 765 mmHg 97%
09:00 +23°C° 2.3 mm 2 m/S 765 mmHg 97%
10:00 +24°C° 1.1 mm 2 m/S 765 mmHg 92%
11:00 +26°C° 1.1 mm 1 m/S 765 mmHg 87%
12:00 +27°C° 1.1 mm 1 m/S 765 mmHg 82%
13:00 +27°C° 0.7 mm 2 m/S 764 mmHg 81%
14:00 +27°C° 0.7 mm 2 m/S 763 mmHg 79%
15:00 +28°C° 0.7 mm 2 m/S 763 mmHg 78%
16:00 +27°C° 0.4 mm 2 m/S 763 mmHg 82%
17:00 +26°C° 0.4 mm 2 m/S 763 mmHg 86%
18:00 +25°C° 0.4 mm 2 m/S 763 mmHg 90%
19:00 +24°C° 0.3 mm 2 m/S 763 mmHg 91%
20:00 +24°C° 0.3 mm 2 m/S 764 mmHg 93%
21:00 +23°C° 0.3 mm 2 m/S 764 mmHg 95%
22:00 +22°C° 0.2 mm 3 m/S 764 mmHg 96%
23:00 +22°C° 0.2 mm 3 m/S 764 mmHg 96%

Morgen, 21 Januar, Donnerstag

Zeit Temperatur Niederschläge Wind Luftdruck Luftfeuchtigkeit
00:00 +22°C° 0.2 mm 3 m/S 764 mmHg 96%
01:00 +22°C° 0.1 mm 3 m/S 764 mmHg 96%
02:00 +22°C° 0.1 mm 3 m/S 764 mmHg 97%
03:00 +23°C° 0.1 mm 2 m/S 763 mmHg 97%
04:00 +22°C° 0 mm 3 m/S 763 mmHg 97%
05:00 +22°C° 0 mm 3 m/S 763 mmHg 97%
06:00 +21°C° 0 mm 3 m/S 763 mmHg 97%
07:00 +22°C° 0 mm 3 m/S 763 mmHg 94%
08:00 +24°C° 0 mm 3 m/S 763 mmHg 92%
09:00 +25°C° 0 mm 3 m/S 763 mmHg 89%
10:00 +26°C° 0 mm 3 m/S 763 mmHg 85%
11:00 +27°C° 0 mm 3 m/S 762 mmHg 81%
12:00 +28°C° 0 mm 3 m/S 762 mmHg 77%
13:00 +28°C° 0 mm 3 m/S 761 mmHg 76%
14:00 +28°C° 0 mm 4 m/S 760 mmHg 75%
15:00 +28°C° 0 mm 4 m/S 759 mmHg 73%
16:00 +27°C° 0 mm 4 m/S 759 mmHg 79%
17:00 +26°C° 0 mm 3 m/S 758 mmHg 84%
18:00 +25°C° 0 mm 3 m/S 758 mmHg 89%
19:00 +24°C° 0 mm 3 m/S 759 mmHg 92%
20:00 +24°C° 0 mm 3 m/S 759 mmHg 94%
21:00 +23°C° 0 mm 2 m/S 759 mmHg 96%
22:00 +23°C° 0 mm 2 m/S 759 mmHg 96%
23:00 +23°C° 0 mm 2 m/S 759 mmHg 97%

übermorgen, 22 Januar, Freitag

Zeit Temperatur Niederschläge Wind Luftdruck Luftfeuchtigkeit
00:00 +23°C° 0 mm 2 m/S 759 mmHg 97%
01:00 +23°C° 0 mm 2 m/S 758 mmHg 96%
02:00 +23°C° 0 mm 2 m/S 758 mmHg 96%
03:00 +23°C° 0 mm 2 m/S 758 mmHg 96%
04:00 +23°C° 0 mm 2 m/S 758 mmHg 96%
05:00 +23°C° 0 mm 2 m/S 758 mmHg 95%
06:00 +22°C° 0 mm 1 m/S 758 mmHg 95%
07:00 +23°C° 0 mm 1 m/S 758 mmHg 92%
08:00 +24°C° 0 mm 1 m/S 759 mmHg 89%
09:00 +25°C° 0 mm 1 m/S 759 mmHg 87%
10:00 +26°C° 0 mm 2 m/S 759 mmHg 81%
11:00 +28°C° 0 mm 2 m/S 758 mmHg 76%
12:00 +29°C° 0 mm 2 m/S 758 mmHg 70%
13:00 +29°C° 0 mm 2 m/S 757 mmHg 70%
14:00 +30°C° 0 mm 3 m/S 757 mmHg 71%
15:00 +30°C° 0 mm 3 m/S 756 mmHg 71%
16:00 +28°C° 0 mm 3 m/S 756 mmHg 77%
17:00 +27°C° 0 mm 3 m/S 756 mmHg 83%
18:00 +25°C° 0 mm 3 m/S 757 mmHg 88%
19:00 +25°C° 0 mm 2 m/S 757 mmHg 90%
20:00 +24°C° 0 mm 2 m/S 758 mmHg 92%
21:00 +23°C° 0 mm 1 m/S 759 mmHg 94%
22:00 +23°C° 0 mm 1 m/S 759 mmHg 95%
23:00 +23°C° 0 mm 1 m/S 759 mmHg 95%

23 Januar, Samstag

Zeit Temperatur Niederschläge Wind Luftdruck Luftfeuchtigkeit
00:00 +23°C° 0 mm 1 m/S 759 mmHg 95%
01:00 +20°C° 0 mm 0 m/S 759 mmHg 96%
02:00 +20°C° 0 mm 0 m/S 759 mmHg 96%
03:00 +20°C° 0 mm 0 m/S 759 mmHg 97%
04:00 +21°C° 0 mm 0 m/S 759 mmHg 96%
05:00 +21°C° 0 mm 0 m/S 759 mmHg 95%
06:00 +21°C° 0 mm 0 m/S 759 mmHg 94%
07:00 +22°C° 0 mm 0 m/S 760 mmHg 92%
08:00 +22°C° 0 mm 0 m/S 760 mmHg 90%
09:00 +23°C° 0 mm 0 m/S 761 mmHg 88%
10:00 +26°C° 0 mm 1 m/S 760 mmHg 84%
11:00 +27°C° 0 mm 1 m/S 760 mmHg 80%
12:00 +28°C° 0 mm 1 m/S 760 mmHg 76%
13:00 +28°C° 0 mm 2 m/S 759 mmHg 77%
14:00 +28°C° 0 mm 2 m/S 758 mmHg 77%
15:00 +28°C° 0 mm 3 m/S 757 mmHg 78%
16:00 +27°C° 0 mm 3 m/S 757 mmHg 81%
17:00 +26°C° 0 mm 2 m/S 757 mmHg 84%
18:00 +25°C° 0 mm 2 m/S 757 mmHg 87%
19:00 +25°C° 0 mm 2 m/S 758 mmHg 89%
20:00 +24°C° 0 mm 2 m/S 758 mmHg 92%
21:00 +22°C° 0 mm 3 m/S 759 mmHg 94%
22:00 +23°C° 0 mm 2 m/S 759 mmHg 95%
23:00 +23°C° 0 mm 2 m/S 759 mmHg 96%

24 Januar, Sonntag

Zeit Temperatur Niederschläge Wind Luftdruck Luftfeuchtigkeit
00:00 +23°C° 0 mm 2 m/S 759 mmHg 97%
01:00 +23°C° 0 mm 2 m/S 758 mmHg 97%
02:00 +24°C° 0 mm 2 m/S 758 mmHg 97%
03:00 +24°C° 0 mm 2 m/S 758 mmHg 97%
04:00 +24°C° 0 mm 2 m/S 758 mmHg 97%
05:00 +24°C° 0 mm 2 m/S 758 mmHg 96%
06:00 +24°C° 0 mm 2 m/S 758 mmHg 96%
07:00 +24°C° 0 mm 2 m/S 758 mmHg 94%
08:00 +25°C° 0 mm 2 m/S 759 mmHg 92%
09:00 +25°C° 0 mm 2 m/S 759 mmHg 90%
10:00 +26°C° 0 mm 1 m/S 759 mmHg 86%
11:00 +27°C° 0 mm 1 m/S 759 mmHg 82%
12:00 +27°C° 0 mm 1 m/S 758 mmHg 78%
13:00 +28°C° 0 mm 1 m/S 758 mmHg 76%
14:00 +28°C° 0 mm 1 m/S 757 mmHg 75%
15:00 +28°C° 0 mm 2 m/S 756 mmHg 73%
16:00 +28°C° 0 mm 2 m/S 756 mmHg 77%
17:00 +27°C° 0 mm 2 m/S 756 mmHg 81%
18:00 +26°C° 0 mm 2 m/S 756 mmHg 86%
19:00 +25°C° 0 mm 2 m/S 757 mmHg 89%
20:00 +25°C° 0 mm 3 m/S 757 mmHg 92%
21:00 +24°C° 0 mm 3 m/S 758 mmHg 95%
22:00 +24°C° 0 mm 3 m/S 757 mmHg 96%
23:00 +24°C° 0 mm 3 m/S 757 mmHg 96%

25 Januar, Montag

Zeit Temperatur Niederschläge Wind Luftdruck Luftfeuchtigkeit
00:00 +24°C° 0 mm 3 m/S 757 mmHg 97%
01:00 +24°C° 0 mm 3 m/S 757 mmHg 97%
02:00 +24°C° 0 mm 2 m/S 756 mmHg 97%
03:00 +23°C° 0 mm 2 m/S 756 mmHg 97%
04:00 +23°C° 0 mm 2 m/S 756 mmHg 96%
05:00 +24°C° 0 mm 2 m/S 756 mmHg 95%
06:00 +24°C° 0 mm 1 m/S 756 mmHg 94%
07:00 +24°C° 0 mm 1 m/S 756 mmHg 91%
08:00 +25°C° 0 mm 1 m/S 756 mmHg 89%
09:00 +25°C° 0 mm 1 m/S 757 mmHg 86%
10:00 +27°C° 0 mm 1 m/S 756 mmHg 80%
11:00 +29°C° 0 mm 1 m/S 756 mmHg 74%
12:00 +28°C° 0 mm 0 m/S 755 mmHg 68%
13:00 +30°C° 0 mm 1 m/S 755 mmHg 67%
14:00 +31°C° 0 mm 2 m/S 754 mmHg 66%
15:00 +31°C° 0 mm 3 m/S 753 mmHg 65%
16:00 +29°C° 0 mm 3 m/S 753 mmHg 72%
17:00 +27°C° 0 mm 3 m/S 753 mmHg 79%
18:00 +26°C° 0 mm 3 m/S 753 mmHg 86%
19:00 +25°C° 0 mm 3 m/S 754 mmHg 88%
20:00 +25°C° 0 mm 2 m/S 754 mmHg 91%
21:00 +24°C° 0 mm 2 m/S 755 mmHg 93%
22:00 +24°C° 0 mm 2 m/S 755 mmHg 93%
23:00 +24°C° 0 mm 1 m/S 755 mmHg 93%
Mehr zeigen

Wir brauchen deine Erlaubnis

Meteoprog und unser Service Anbieter werden persönliche Daten aufbewahren, so wie Cookies, Geräte Bezeichnung oder ähnliche Technologien von deinem Gerät und Prozess, so wie Persönliche Daten Inhalte und Werbungen, genauso wie social Media und den Verkehr zu analysieren.

  • Aufbewahrung und/oder Zugang zu deiner Geräte Informationen.

    Cookies, Geräte Bezeichnung oder andere Informationen, können aufbewahrt oder Zugang zu deinem Gerät erhalten, für den Grund, der oben angegeben wird.

  • Personalisierte Werbung und Inhalte, Messungen, Einblick in das Publikum und Produkt Entwicklung.

    Werbungen und Inhalte können personalisiert werden, basierend auf ein Profil. Mehr Daten können besser personalisierte Werbungen und Inhalte hinzufügen. Werbung und Inhalte können gezeigt und gemessen werden. Einblicke über das Publikum, welche die Werbung gesehen haben und den Inhalt, können abgeleitet werden. So wie Daten können genutzt werden, um es zu verbessern oder die Benutzer Erfahrung zu verbessern das System und die Software.

Wenn du “Ich stimme zu” klickst, erlaubst du uns, die Cookies zu benutzen die Geräte Bezeichnung, den Web oder ähnliche Technologien zu benutzen. Deine Settings, können in deinem Gerät bei deinem Browser geändert werden.

Für den bestimmten Zweck, berechtigten Interessen beruhen darauf, mehr als auf den Inhalt. Du kannst mehr darüber in unseren Privaten und Cookie Politik lesen.